Wind_Speed
12 12 12 12 12 12 12 12 12 13 14 14 14 14 14 14 14 13 7 8 6 10 14 15 11 8 13 19 19 16 11 17 23 20 13 7 15 17 10 11 8 5 1 6 13
13 13 13 13 13 12 11 11 11 12 13 13 15 14 14 15 15 4 3 9 6 6 5 9 15 14 18 20 16 18 17 27 21 14 11 19 17 12 8 19 14 8 8 8 11
13 12 13 13 13 11 10 10 12 14 15 16 16 16 16 15 2 2 5 10 13 12 7 7 10 18 23 21 29 25 26 22 25 18 15 20 21 18 16 18 21 16 9 3 3
14 13 12 12 12 11 9 10 12 13 14 15 15 18 18 9 2 3 13 17 16 14 5 4 8 20 21 26 26 26 30 32 30 19 13 20 25 26 26 24 23 12 11 13 13
13 12 12 11 11 11 10 11 13 15 15 16 17 20 11 2 5 12 8 11 9 7 5 8 11 15 23 17 29 28 29 29 30 28 23 20 27 26 30 30 29 28 25 23 22
15 13 12 11 11 9 8 8 12 16 16 15 13 11 5 4 10 11 10 12 9 8 8 8 11 12 18 23 24 19 30 35 36 28 25 27 30 25 36 31 32 28 29 30 26
16 15 13 12 12 10 9 9 12 16 17 10 10 7 2 7 11 13 12 10 8 6 8 9 12 15 5 16 26 29 26 24 26 33 29 20 27 35 40 33 29 28 29 30 30
17 15 13 13 12 10 9 11 13 16 8 7 5 3 3 8 15 13 11 11 10 9 8 8 9 17 22 19 18 17 22 24 33 25 27 26 29 38 39 39 32 34 34 33 33
19 17 15 13 12 10 9 13 13 10 6 9 4 3 2 7 13 10 12 12 13 11 10 8 7 16 16 17 18 20 24 30 30 27 24 19 35 37 44 39 33 34 35 34 35
21 20 17 15 13 10 13 14 9 6 7 3 2 3 3 9 16 15 10 12 10 9 11 10 10 12 12 16 22 24 26 27 28 21 25 29 35 29 33 16 30 38 39 36 34
23 22 19 14 11 8 14 11 6 2 7 7 4 6 7 14 16 12 10 11 7 10 12 15 12 14 15 19 25 25 28 22 19 22 26 26 34 31 31 37 34 32 29 29 31
25 22 19 13 8 7 11 4 3 5 9 11 9 9 8 7 16 12 7 9 12 13 13 12 16 17 15 14 20 22 26 31 20 15 20 25 32 29 27 30 36 36 39 37 36
26 24 19 10 3 6 3 4 4 9 7 3 4 5 4 12 11 11 13 13 13 14 13 15 16 10 10 14 19 23 25 25 27 20 17 21 27 27 22 27 31 33 34 35 37
27 26 17 4 1 4 1 7 10 5 5 5 4 3 6 15 9 13 9 10 11 16 15 15 11 13 16 19 18 21 22 26 24 22 23 21 20 23 25 29 29 33 35 37 37
29 22 14 2 3 2 3 9 7 2 4 2 3 2 11 6 11 7 7 12 15 17 16 21 19 16 18 20 19 20 18 24 23 23 25 30 19 19 19 21 19 18 27 33 35
27 16 6 7 4 3 9 5 4 6 1 2 2 9 11 10 9 7 11 13 14 15 16 21 22 18 22 19 17 14 17 20 19 14 18 24 22 20 21 26 22 19 25 28 29
23 7 5 4 0 8 10 1 5 5 2 2 7 11 16 9 13 8 14 10 8 8 12 18 14 14 15 19 20 16 16 11 15 18 19 21 20 19 7 1 1 8 18 10 14
21 1 3 1 3 9 4 6 5 3 5 9 10 18 11 10 9 13 11 12 2 8 13 7 7 14 7 18 21 21 19 15 20 17 20 26 23 16 16 15 18 14 12 12 13
17 2 2 2 4 9 8 5 3 4 5 9 14 10 8 6 8 12 12 9 5 5 8 9 6 12 10 12 14 20 20 21 24 19 16 18 26 26 19 11 9 3 6 9 12
12 2 2 3 6 5 5 4 3 3 8 8 9 7 12 14 13 10 10 5 6 5 9 7 10 10 4 7 13 8 13 4 15 13 20 17 22 15 24 27 15 0 9 16 18
7 4 3 4 5 5 3 5 7 6 9 5 9 12 12 12 11 12 7 13 3 9 14 14 7 11 13 6 4 5 9 12 14 17 13 12 16 19 14 11 8 6 14 18 19
8 3 4 8 6 2 4 8 9 5 4 8 8 10 11 12 11 14 12 7 15 14 15 13 6 11 16 10 5 8 11 5 5 20 16 10 3 11 18 14 6 11 19 21 20
11 5 5 5 2 5 6 7 7 7 4 4 6 7 13 14 8 8 12 8 17 15 6 8 5 10 9 8 4 8 14 13 14 14 14 12 4 14 10 6 11 16 21 22 21
6 3 0 4 4 5 9 4 5 3 11 7 10 14 11 12 13 10 18 12 16 18 16 12 13 15 13 18 14 11 12 12 13 10 13 16 20 8 11 12 15 18 24 23 21
4 2 3 3 3 10 8 8 8 6 3 12 6 8 12 7 18 22 18 17 18 24 24 5 14 18 18 19 17 18 18 17 17 19 18 18 24 19 17 16 18 25 28 22 18
5 5 5 15 7 8 1 3 8 6 11 12 13 12 15 18 19 26 24 19 8 4 11 4 6 13 20 18 18 22 21 21 21 20 21 22 27 22 25 28 26 25 23 20 17
3 5 3 8 5 5 4 6 13 16 11 9 12 17 19 21 26 32 34 34 19 6 7 4 4 9 13 11 13 16 17 19 22 21 21 21 23 21 23 20 20 24 23 20 19
Wind_Direction
13 10 6 1 355 348 343 341 340 338 338 340 340 342 333 326 317 314 291 244 261 263 240 241 243 224 206 224 220 224 237 244 244 234 242 246 248 249 248 247 206 177 146 114 172
8 4 2 359 356 356 356 354 355 353 350 350 350 345 340 335 333 10 153 103 59 5 315 249 228 218 209 220 217 216 226 238 244 249 233 238 240 244 244 223 220 184 139 97 145
4 2 359 358 356 0 1 5 0 357 350 346 343 347 348 348 356 37 359 318 312 319 322 273 238 224 225 223 217 226 241 240 246 244 244 251 251 247 240 244 214 200 181 161 187
357 356 356 354 355 357 358 357 356 357 359 355 348 345 342 7 9 342 330 313 313 319 292 271 241 223 229 228 227 240 243 242 254 253 246 247 254 253 246 244 235 240 221 269 270
350 348 349 351 353 352 349 347 342 343 349 344 342 347 14 17 33 329 7 11 356 352 285 251 245 234 239 239 234 236 244 248 245 250 247 253 251 249 247 245 246 248 253 255 261
346 343 344 344 347 345 342 337 328 332 335 335 340 6 21 71 2 2 333 328 323 329 302 260 245 250 275 261 247 244 247 249 253 247 247 245 253 255 247 246 253 255 256 257 256
347 342 339 339 342 340 338 335 326 325 326 336 344 17 41 31 11 359 337 322 297 289 308 295 262 240 265 256 253 256 263 259 250 240 241 252 260 248 251 248 252 253 255 257 257
353 347 340 334 335 331 329 327 323 318 318 339 353 25 251 352 8 356 342 339 317 280 272 291 270 250 251 257 274 253 250 249 240 232 237 228 257 252 242 244 241 255 256 260 263
355 351 340 333 332 328 327 331 324 323 338 344 29 282 118 337 351 344 331 322 319 292 265 267 252 249 247 238 252 238 247 238 252 236 230 217 242 252 258 256 247 245 254 257 261
351 349 343 333 335 339 344 344 336 317 326 351 321 246 260 334 336 332 334 313 304 294 254 242 243 245 233 234 236 237 238 245 258 248 226 223 243 245 255 253 250 253 251 254 251
348 344 344 335 336 343 353 345 325 241 305 280 310 291 304 319 323 319 317 324 298 276 269 249 260 257 259 253 256 265 268 264 273 261 256 238 241 248 246 252 256 258 253 253 256
345 340 339 333 333 355 10 36 31 324 298 284 260 263 281 304 304 313 325 303 315 294 303 259 248 263 276 273 275 260 257 259 257 287 246 246 250 251 247 250 250 252 255 259 264
343 337 334 325 322 353 51 31 351 337 267 279 226 260 280 310 298 292 309 289 290 290 281 274 277 297 260 263 251 253 254 256 253 261 239 251 252 251 249 255 254 256 257 260 261
342 337 335 320 82 356 37 326 333 324 268 132 180 188 296 317 259 293 285 297 279 283 292 280 288 274 260 258 256 264 249 255 254 250 244 231 254 243 242 244 243 247 249 253 257
343 339 335 204 157 33 298 320 309 158 280 77 166 280 310 291 308 309 294 290 289 287 281 268 290 285 262 256 261 261 270 249 243 246 245 244 258 258 256 256 255 251 254 255 258
345 343 359 120 75 10 349 343 148 235 243 142 271 316 312 318 294 301 292 288 276 280 273 270 270 269 265 262 266 260 273 256 240 255 249 237 236 253 252 254 253 251 255 254 258
346 354 116 98 340 349 350 229 252 270 112 58 328 321 316 309 302 319 322 303 313 316 311 317 320 298 237 240 242 238 238 246 227 231 239 240 231 240 266 313 221 293 264 230 265
348 289 174 108 334 344 331 247 275 35 324 335 317 310 300 339 324 326 311 313 300 312 309 333 340 334 298 234 241 229 233 241 242 233 234 225 239 225 232 264 266 255 259 270 272
349 221 194 274 327 335 285 263 280 349 348 321 315 302 316 312 307 306 323 324 329 3 329 314 302 288 305 322 272 235 249 261 263 268 276 228 216 249 247 243 233 239 335 328 312
359 199 223 275 321 315 272 274 286 295 306 301 307 286 316 328 312 329 319 328 294 316 320 314 299 299 138 290 264 293 248 319 249 257 250 238 212 220 213 228 247 273 2 355 348
3 251 286 331 333 263 283 331 306 311 297 283 295 289 288 314 301 308 290 307 323 308 315 302 275 288 285 244 229 272 242 243 247 243 265 227 217 210 214 122 111 32 11 0 1
352 260 307 343 244 249 288 340 326 290 248 276 281 278 288 309 296 297 286 279 311 311 301 309 291 285 287 284 213 172 227 228 251 224 250 298 33 122 113 115 71 12 13 360 11
334 293 324 6 348 330 326 297 273 284 281 299 285 287 306 292 294 293 284 281 297 295 294 340 255 300 292 167 215 218 239 209 250 254 266 242 160 152 170 90 28 4 0 357 5
332 300 55 36 12 330 337 317 301 265 282 263 279 295 287 301 275 275 285 287 294 287 295 294 266 263 276 298 321 300 284 276 269 280 269 252 263 192 214 328 332 337 338 342 346
345 39 357 310 324 324 300 285 297 312 281 290 287 281 296 285 296 283 286 304 289 276 275 268 263 266 273 281 284 281 275 269 260 262 262 262 271 263 274 301 316 309 309 322 337
6 351 326 291 303 304 307 297 305 330 316 286 288 300 307 292 288 289 292 297 261 253 284 208 264 282 274 268 270 270 268 264 263 259 259 264 266 271 281 283 288 293 306 310 320
321 326 287 304 302 312 302 333 317 320 308 279 289 299 292 287 294 290 289 282 260 217 234 242 263 269 255 264 274 273 266 258 252 249 242 252 262 263 266 272 276 284 294 301 303
Height
1532 1530 1528 1526 1524 1522 1520 1518 1516 1514 1512 1509 1507 1504 1502 1499 1497 1496 1498 1497 1496 1494 1495 1497 1501 1502 1502 1504 1502 1502 1495 1482 1474 1476 1479 1480 1479 1474 1474 1471 1474 1473 1470 1473 1477
1532 1530 1528 1526 1523 1521 1519 1517 1515 1513 1510 1508 1506 1504 1501 1498 1495 1496 1495 1493 1493 1494 1495 1497 1498 1500 1498 1498 1496 1493 1481 1469 1466 1468 1478 1478 1476 1472 1473 1471 1470 1473 1476 1476 1476
1532 1529 1527 1524 1522 1519 1517 1515 1513 1511 1508 1506 1503 1501 1498 1496 1496 1498 1495 1493 1492 1493 1495 1493 1494 1496 1493 1489 1488 1483 1469 1465 1466 1471 1478 1477 1472 1471 1472 1466 1464 1469 1472 1476 1478
1531 1528 1525 1523 1520 1518 1516 1515 1513 1511 1508 1506 1503 1500 1496 1495 1493 1498 1495 1492 1492 1491 1492 1492 1493 1492 1487 1480 1483 1478 1469 1471 1467 1472 1479 1476 1473 1467 1467 1466 1466 1470 1472 1474 1475
1530 1527 1524 1522 1520 1517 1515 1513 1511 1509 1507 1504 1500 1497 1494 1497 1498 1495 1493 1491 1490 1491 1491 1492 1491 1488 1478 1475 1476 1467 1466 1467 1468 1472 1473 1474 1469 1464 1460 1462 1465 1467 1470 1472 1473
1529 1526 1523 1520 1518 1516 1514 1512 1509 1507 1505 1503 1501 1499 1497 1496 1497 1494 1492 1491 1491 1490 1489 1490 1488 1485 1480 1474 1468 1465 1465 1464 1465 1465 1468 1468 1461 1466 1451 1460 1458 1462 1464 1464 1466
1527 1524 1522 1519 1516 1514 1512 1510 1508 1504 1502 1501 1499 1497 1499 1500 1496 1493 1491 1490 1489 1488 1488 1486 1485 1484 1477 1476 1472 1469 1466 1462 1455 1457 1458 1465 1458 1449 1450 1454 1453 1454 1455 1457 1459
1526 1523 1520 1517 1514 1512 1510 1508 1505 1502 1500 1499 1498 1498 1497 1496 1494 1493 1491 1489 1486 1484 1483 1483 1482 1480 1477 1474 1470 1468 1464 1456 1436 1451 1451 1464 1450 1427 1443 1443 1447 1446 1447 1448 1449
1525 1522 1518 1515 1513 1510 1508 1506 1502 1499 1498 1496 1497 1499 1493 1494 1494 1492 1490 1487 1485 1483 1482 1480 1479 1475 1472 1470 1466 1455 1446 1436 1434 1436 1444 1454 1439 1428 1437 1434 1435 1438 1439 1441 1441
1524 1520 1517 1513 1510 1508 1506 1503 1500 1498 1498 1497 1497 1500 1495 1494 1491 1489 1488 1486 1484 1482 1480 1478 1475 1468 1464 1461 1448 1441 1437 1435 1433 1427 1432 1436 1425 1430 1429 1426 1426 1429 1431 1433 1434
1522 1518 1515 1511 1509 1507 1505 1503 1504 1502 1500 1497 1497 1496 1494 1493 1491 1488 1486 1484 1482 1479 1473 1467 1466 1457 1454 1451 1446 1444 1435 1426 1425 1427 1429 1423 1419 1421 1426 1426 1423 1425 1426 1427 1427
1519 1516 1512 1510 1508 1507 1505 1506 1507 1507 1499 1495 1495 1495 1493 1493 1489 1485 1485 1483 1479 1472 1468 1464 1458 1454 1453 1454 1452 1446 1444 1435 1431 1434 1425 1422 1413 1415 1418 1413 1416 1418 1421 1420 1421
1517 1512 1509 1507 1506 1506 1506 1506 1504 1504 1498 1493 1492 1492 1492 1491 1485 1483 1483 1479 1475 1470 1463 1460 1451 1449 1454 1453 1453 1449 1444 1439 1435 1430 1426 1426 1416 1410 1407 1409 1410 1411 1415 1416 1415
1514 1509 1505 1504 1507 1505 1506 1504 1502 1501 1490 1488 1488 1489 1489 1485 1480 1480 1478 1478 1472 1466 1462 1455 1449 1449 1448 1448 1447 1443 1439 1438 1436 1436 1427 1421 1416 1403 1400 1399 1400 1401 1405 1406 1407
1511 1506 1503 1501 1504 1506 1506 1503 1501 1502 1480 1487 1487 1489 1486 1485 1483 1476 1475 1472 1466 1462 1460 1449 1446 1446 1444 1440 1438 1436 1434 1432 1430 1426 1426 1419 1417 1394 1392 1391 1389 1391 1395 1397 1398
1509 1505 1502 1503 1504 1505 1503 1500 1502 1492 1482 1483 1485 1483 1480 1476 1475 1473 1471 1468 1463 1458 1453 1446 1445 1442 1437 1436 1435 1435 1435 1432 1429 1430 1419 1405 1407 1393 1390 1382 1381 1382 1384 1388 1389
1508 1504 1503 1503 1506 1503 1501 1503 1491 1482 1484 1482 1483 1480 1476 1471 1470 1468 1466 1459 1457 1461 1445 1442 1435 1427 1431 1434 1432 1433 1435 1439 1434 1424 1418 1402 1402 1391 1377 1373 1376 1381 1382 1381 1382
1506 1504 1503 1503 1503 1502 1502 1497 1495 1482 1482 1485 1483 1479 1472 1473 1469 1467 1462 1454 1452 1459 1454 1453 1442 1443 1432 1430 1429 1428 1430 1426 1425 1409 1400 1397 1396 1381 1380 1379 1376 1378 1381 1379 1377
1504 1503 1504 1503 1502 1501 1500 1487 1482 1487 1489 1487 1483 1474 1468 1467 1469 1463 1458 1456 1454 1457 1462 1452 1445 1439 1434 1434 1428 1426 1432 1419 1415 1403 1395 1372 1381 1382 1373 1375 1375 1374 1375 1374 1373
1503 1503 1504 1502 1501 1500 1494 1494 1488 1492 1492 1489 1486 1480 1474 1469 1468 1460 1459 1456 1456 1455 1456 1453 1451 1431 1437 1436 1424 1423 1423 1444 1413 1423 1398 1372 1367 1372 1359 1373 1370 1372 1376 1374 1370
1503 1502 1501 1500 1499 1498 1494 1487 1491 1492 1493 1489 1482 1480 1478 1472 1468 1462 1460 1456 1455 1455 1453 1447 1447 1434 1424 1424 1423 1427 1430 1430 1420 1400 1390 1368 1359 1350 1354 1359 1371 1375 1375 1372 1368
1505 1498 1500 1499 1497 1498 1491 1494 1496 1490 1489 1488 1484 1479 1475 1472 1471 1463 1460 1459 1456 1456 1450 1445 1446 1434 1421 1415 1418 1431 1437 1438 1428 1408 1386 1388 1361 1352 1361 1371 1377 1376 1372 1371 1367
1507 1504 1500 1498 1496 1494 1492 1492 1493 1489 1486 1486 1484 1480 1479 1477 1474 1460 1457 1457 1457 1455 1449 1447 1436 1430 1412 1413 1414 1417 1414 1420 1417 1418 1408 1380 1361 1361 1363 1367 1373 1376 1375 1371 1367
1509 1500 1499 1500 1501 1498 1493 1488 1487 1488 1486 1485 1483 1479 1474 1472 1468 1466 1457 1454 1455 1454 1453 1454 1441 1433 1425 1409 1408 1414 1413 1410 1407 1406 1395 1379 1366 1361 1362 1364 1369 1376 1378 1374 1369
1510 1506 1508 1495 1498 1499 1496 1492 1488 1483 1485 1483 1479 1477 1477 1475 1464 1455 1447 1449 1454 1454 1451 1449 1438 1428 1419 1414 1413 1413 1411 1408 1406 1399 1396 1389 1376 1368 1368 1371 1374 1378 1378 1374 1370
1512 1512 1509 1503 1502 1498 1493 1486 1486 1483 1486 1479 1478 1474 1473 1469 1466 1456 1451 1448 1450 1446 1445 1447 1437 1430 1421 1415 1411 1406 1401 1400 1399 1396 1392 1388 1379 1379 1378 1379 1378 1375 1373 1371 1371
1511 1512 1511 1503 1498 1498 1494 1491 1490 1489 1482 1478 1477 1474 1469 1464 1457 1449 1445 1441 1442 1443 1444 1445 1440 1431 1415 1408 1406 1400 1389 1385 1384 1383 1384 1381 1373 1376 1373 1375 1374 1372 1373 1369 1369